Jacksonville, FL

5:52 AM EST on January 20, 2017 (GMT -0500)
Cecil

Weather History for KVQQ - September, 2013

Change the Weather History Date:

Sunday, September 22, 2013

  Actual Average (KNIP) Record (KNIP)
Temperature  
Mean Temperature 76 °F -  
Max Temperature 80 °F 84 °F 91 °F (1998)
Min Temperature 71 °F 71 °F 66 °F (1999)
Cooling Degree Days 10    
Growing Degree Days 26 (Base 50)    
Moisture  
Dew Point 73 °F    
Average Humidity 96    
Maximum Humidity 100    
Minimum Humidity 79    
Precipitation  
Precipitation 0.00 in - - ()
Sea Level Pressure  
Sea Level Pressure 29.80 in    
Wind  
Wind Speed 3 mph (SW)    
Max Wind Speed 12 mph    
Max Gust Speed 23 mph    
Visibility 8 miles    
Events Rain    
Averages and records for this station are not official NWS values.
T = Trace of Precipitation, MM = Missing Value Source: NWS Daily Summary

Daily Weather History Graph

Daily Weather History Graph

Search for Another Location

Airport or City:

Trip Planner

Search our weather history database for the weather conditions in past years. The results will help you decide how hot, cold, wet, or windy it might be!

Date:

Astronomy

Sep. 22, 2013 Rise Set
Actual Time 7:15 AM EDT 7:23 PM EDT
Civil Twilight 6:52 AM EDT 7:47 PM EDT
Nautical Twilight 6:24 AM EDT 8:15 PM EDT
Astronomical Twilight 5:55 AM EDT 8:43 PM EDT
Moon 9:30 PM EDT (9/22) 10:18 AM EDT (9/22)
Length of Visible Light 12h 55m
Length of Day
12h 07m
Waning Gibbous, 89% of the Moon is Illuminated
Sep 22
Waning Gibbous
Sep 26
Last Quarter
Oct 4
New
Oct 11
First Quarter
Oct 18
Full

Hourly Weather History & Observations

Time (EDT) Temp. Heat Index Dew Point Humidity Pressure Visibility Wind Dir Wind Speed Gust Speed Precip Events Conditions
12:15 AM 75.2 °F - 71.6 °F 89% 29.80 in 10.0 mi Calm Calm - N/A   Scattered Clouds
12:35 AM 75.2 °F - 71.6 °F 89% 29.80 in 10.0 mi South 4.6 mph - N/A   Clear
12:55 AM 75.2 °F - 71.6 °F 89% 29.79 in 10.0 mi SSE 3.5 mph - N/A   Clear
1:15 AM 75.2 °F - 71.6 °F 89% 29.79 in 10.0 mi SSE 3.5 mph - N/A   Clear
1:35 AM 75.2 °F - 71.6 °F 89% 29.79 in 10.0 mi Calm Calm - N/A   Clear
1:55 AM 75.2 °F - 71.6 °F 89% 29.79 in 10.0 mi Calm Calm - N/A   Clear
2:15 AM 73.4 °F - 71.6 °F 94% 29.79 in 10.0 mi Calm Calm - N/A   Clear
2:35 AM 73.4 °F - 71.6 °F 94% 29.78 in 10.0 mi Calm Calm - N/A   Clear
2:55 AM 73.4 °F - 71.6 °F 94% 29.78 in 6.0 mi SSE 3.5 mph - N/A Rain Light Rain
3:15 AM 73.4 °F - 71.6 °F 94% 29.78 in 10.0 mi South 3.5 mph - N/A   Clear
3:35 AM 73.4 °F - 71.6 °F 94% 29.77 in 9.0 mi SSE 4.6 mph - N/A   Clear
3:55 AM 73.4 °F - 71.6 °F 94% 29.76 in 5.0 mi South 3.5 mph - N/A Rain Light Rain
4:15 AM 73.4 °F - 73.4 °F 100% 29.76 in 5.0 mi Calm Calm - N/A Rain Light Rain
4:35 AM 71.6 °F - 71.6 °F 100% 29.76 in 7.0 mi Calm Calm - N/A Rain Light Rain
4:55 AM 71.6 °F - 71.6 °F 100% 29.76 in 8.0 mi Calm Calm - N/A   Clear
5:15 AM 71.6 °F - 71.6 °F 100% 29.76 in 6.0 mi Calm Calm - N/A Rain Light Rain
5:35 AM 71.6 °F - 71.6 °F 100% 29.77 in 6.0 mi Calm Calm - N/A Rain Light Rain
5:55 AM 71.6 °F - 71.6 °F 100% 29.77 in 4.0 mi Calm Calm - N/A Rain Light Rain
6:15 AM 71.6 °F - 71.6 °F 100% 29.77 in 5.0 mi South 3.5 mph - N/A Rain Light Rain
6:35 AM 71.6 °F - 71.6 °F 100% 29.77 in 5.0 mi SSW 3.5 mph - N/A Rain Light Rain
6:50 AM 71.6 °F - 71.6 °F 100% 29.77 in 5.0 mi SSW 3.5 mph - N/A Rain Light Rain
7:50 AM 71.6 °F - 71.6 °F 100% 29.77 in 10.0 mi Calm Calm - N/A   Partly Cloudy
8:50 AM 73.4 °F - 73.4 °F 100% 29.77 in 10.0 mi WSW 4.6 mph - N/A   Partly Cloudy
9:35 AM 75.2 °F - 75.2 °F 100% 29.79 in 10.0 mi SSW 5.8 mph - N/A   Mostly Cloudy
9:50 AM 75.2 °F - 75.2 °F 100% 29.79 in 10.0 mi SW 5.8 mph - N/A   Mostly Cloudy
10:50 AM 78.8 °F - 75.2 °F 89% 29.80 in 10.0 mi WSW 5.8 mph - N/A   Mostly Cloudy
11:50 AM 78.8 °F - 75.2 °F 89% 29.80 in 7.0 mi West 9.2 mph - N/A   Mostly Cloudy
12:50 PM 80.6 °F 86.2 °F 75.2 °F 84% 29.80 in 7.0 mi West 9.2 mph - N/A   Mostly Cloudy
1:50 PM 80.6 °F 86.2 °F 75.2 °F 84% 29.80 in 7.0 mi SSW 6.9 mph - N/A   Partly Cloudy
2:50 PM 80.6 °F 85.4 °F 73.4 °F 79% 29.79 in 7.0 mi SW 8.1 mph - N/A   Partly Cloudy
3:50 PM 80.6 °F 86.2 °F 75.2 °F 84% 29.79 in 7.0 mi West 8.1 mph - N/A Rain Light Rain
4:00 PM 77.0 °F - 73.4 °F 89% 29.80 in 1.5 mi West 11.5 mph 23.0 mph N/A Rain Rain
4:50 PM 73.4 °F - 73.4 °F 100% 29.80 in 5.0 mi West 9.2 mph - N/A Rain Light Rain
5:50 PM 73.4 °F - 73.4 °F 100% 29.82 in 5.0 mi WSW 11.5 mph - N/A Rain Light Rain
6:50 PM 73.4 °F - 73.4 °F 100% 29.81 in 7.0 mi WSW 5.8 mph - N/A   Clear
7:50 PM 73.4 °F - 73.4 °F 100% 29.82 in 7.0 mi SW 5.8 mph - N/A   Partly Cloudy
8:15 PM 73.4 °F - 73.4 °F 100% 29.82 in 10.0 mi Calm Calm - N/A   Clear
8:35 PM 73.4 °F - 73.4 °F 100% 29.82 in 10.0 mi Calm Calm - N/A   Clear
8:55 PM 73.4 °F - 73.4 °F 100% 29.84 in 10.0 mi Calm Calm - N/A   Clear
9:15 PM 73.4 °F - 73.4 °F 100% 29.85 in 10.0 mi Calm Calm - N/A   Clear
9:35 PM 71.6 °F - 71.6 °F 100% 29.86 in 10.0 mi Calm Calm - N/A   Clear
9:55 PM 71.6 °F - 71.6 °F 100% 29.87 in 10.0 mi Calm Calm - N/A   Clear
10:15 PM 71.6 °F - 71.6 °F 100% 29.87 in 9.0 mi Calm Calm - N/A   Clear
10:35 PM 71.6 °F - 71.6 °F 100% 29.87 in 7.0 mi Calm Calm - N/A   Clear
10:55 PM 71.6 °F - 71.6 °F 100% 29.86 in 7.0 mi Calm Calm - N/A   Clear
11:15 PM 71.6 °F - 71.6 °F 100% 29.86 in 7.0 mi Calm Calm - N/A   Partly Cloudy
11:35 PM 71.6 °F - 71.6 °F 100% 29.87 in 8.0 mi Calm Calm - N/A   Mostly Cloudy
11:55 PM 71.6 °F - 71.6 °F 100% 29.87 in 9.0 mi Calm Calm - N/A   Scattered Clouds